Presure
153 185 195 233 212 161 152 151 150 146 160 162 161 166 169 164 166 173 171 180 154 141 142 148 149 141 146 153 156 179 148 136 132 132 132 163 146 146 135 124 160 172 169
148 158 174 239 228 168 165 158 165 162 176 175 167 173 177 174 181 139 133 131 128 135 130 138 134 140 129 143 133 141 131 134 148 135 134 154 143 154 127 118 166 155 170
142 147 166 154 221 233 194 183 198 191 163 162 176 179 132 132 133 134 129 136 137 127 133 137 145 128 152 138 126 122 123 124 130 188 182 157 175 128 113 164 162 153 171
139 147 161 152 149 148 192 200 193 182 184 185 144 133 131 127 125 131 131 169 164 156 182 175 167 170 176 122 119 126 133 146 152 166 173 171 147 171 132 178 182 176 164
145 135 144 147 144 147 151 147 146 144 137 134 133 133 133 128 140 177 174 143 140 141 143 178 154 181 168 148 179 183 184 180 184 189 176 168 186 181 186 188 158 181 149
155 135 136 149 145 144 138 136 135 133 128 127 135 124 150 153 150 146 143 142 147 143 136 195 150 190 189 154 192 191 190 182 196 184 179 179 180 182 185 106 179 184 185
137 150 151 144 157 146 137 134 132 151 132 126 126 155 135 133 136 143 142 132 124 127 125 130 136 175 171 201 205 199 194 189 182 185 182 175 178 182 182 181 181 183 188
193 138 136 141 164 140 143 139 129 133 178 125 139 130 144 146 136 133 126 126 124 126 182 141 130 162 193 203 189 193 205 201 200 197 193 193 191 191 190 190 192 190 192
134 150 154 138 142 151 150 152 131 128 136 138 127 149 132 133 137 142 142 121 159 159 160 202 198 204 206 202 198 210 197 183 193 202 202 201 200 210 201 205 202 202 194
157 139 144 157 134 135 147 146 150 141 142 120 126 136 125 141 140 140 149 145 143 147 159 156 204 204 175 183 192 202 200 194 185 185 205 211 208 169 203 177 175 181 209
155 151 156 155 161 151 127 147 146 142 143 126 140 140 140 156 144 143 120 142 142 133 148 161 211 161 176 144 154 157 194 162 152 150 142 139 166 170 161 172 168 144 183
143 179 153 139 164 139 133 139 152 135 121 115 139 126 143 152 143 139 110 113 122 118 128 171 158 193 132 183 170 177 177 152 151 154 151 162 147 160 170 175 146 175 167
143 174 193 173 182 165 153 137 124 122 114 131 138 148 107 106 129 140 141 135 125 123 127 161 157 186 173 157 162 143 146 144 157 139 125 150 174 177 160 135 145 148 155
181 162 148 205 139 145 137 140 138 148 112 126 128 134 121 120 150 145 132 132 119 126 134 146 146 142 198 163 162 140 196 195 139 126 183 151 143 190 189 168 142 143 156
122 141 137 174 137 146 135 129 142 137 111 136 138 131 135 146 146 121 134 127 112 126 130 148 139 162 212 163 164 167 153 162 193 173 171 169 170 160 132 165 149 150 157
160 148 158 209 129 157 137 118 136 139 148 143 149 143 135 130 136 138 113 115 119 124 125 104 163 138 172 160 148 163 159 165 174 142 132 168 183 139 156 145 187 151 161
165 147 122 127 127 122 145 119 135 131 139 134 149 139 136 143 117 133 129 104 123 127 129 115 154 168 169 139 162 145 162 131 167 149 183 201 147 118 162 179 134 186 155
158 166 152 161 153 147 135 132 132 149 139 139 144 134 137 153 143 113 116 120 148 150 154 165 153 190 163 141 165 139 168 124 158 194 141 151 139 169 147 151 158 151 143
150 151 162 165 159 143 133 128 147 131 127 143 135 159 121 116 127 116 122 134 164 136 153 190 157 153 134 139 176 150 158 161 152 189 165 159 167 144 186 152 163 180 167
157 161 150 133 142 150 159 134 144 148 115 100 131 114 113 190 144 127 166 93 153 159 117 126 111 124 165 138 132 150 165 142 165 200 187 171 190 146 168 145 165 177 186
145 142 153 142 133 137 136 146 137 150 122 132 177 101 112 121 121 153 129 167 152 164 171 117 128 142 147 112 134 147 141 147 190 161 186 166 159 174 155 167 166 168 172
167 157 125 150 155 156 149 143 147 143 89 182 118 106 126 126 145 162 159 164 142 170 114 154 171 133 162 121 141 138 173 144 150 194 176 154 175 205 169 162 168 197 157
167 163 162 160 168 152 124 150 146 142 130 141 149 111 132 136 145 160 131 134 146 137 130 155 142 146 131 144 153 143 143 150 154 145 172 148 157 135 167 201 181 161 192
164 160 171 116 115 165 129 132 122 123 149 151 141 112 109 125 127 139 143 147 150 154 148 144 174 148 155 145 148 152 151 123 125 158 161 146 160 123 165 198 200 135 163
143 173 171 151 158 134 139 166 134 152 114 153 116 118 106 124 132 154 156 125 156 137 158 157 162 155 159 162 177 156 163 174 163 159 187 172 167 227 175 171 177 187 167
164 135 155 157 168 151 150 152 144 174 150 129 164 160 130 166 157 138 141 146 161 130 164 159 174 155 183 128 177 173 187 157 140 169 158 167 185 166 180 169 188 191 213
Wind_Speed
12 21 19 29 30 23 20 17 14 15 13 12 11 13 15 14 16 19 18 22 14 17 20 20 20 22 21 20 20 18 23 24 27 29 28 26 28 29 32 32 29 23 24
20 11 14 29 32 25 23 19 15 14 14 13 11 12 14 14 19 6 9 11 14 14 15 19 20 21 20 18 21 20 24 24 23 28 29 25 33 33 30 31 24 29 19
21 21 10 8 26 33 24 20 20 21 15 11 12 14 4 4 4 6 9 8 9 15 17 19 19 20 21 18 20 22 23 24 26 23 24 27 23 26 29 27 26 31 25
25 23 16 13 12 10 17 20 20 19 17 14 4 4 3 3 3 7 9 9 10 11 23 20 18 21 24 24 25 25 27 26 27 26 25 26 30 27 24 28 29 28 25
29 24 27 21 15 13 11 9 7 6 6 7 6 2 2 1 3 12 9 10 12 14 16 24 23 25 23 23 22 23 22 22 22 22 23 26 27 30 31 30 27 30 28
33 30 28 27 21 16 14 12 12 11 11 9 6 7 6 6 5 6 10 13 16 17 19 26 21 25 24 25 22 21 21 21 20 22 24 26 28 30 31 25 30 29 29
40 33 29 31 25 22 20 16 15 16 12 12 10 7 6 5 8 9 11 13 15 18 18 16 20 24 24 23 21 21 20 20 22 21 22 26 26 30 29 30 34 35 35
32 44 40 34 25 29 22 21 19 18 10 14 13 8 13 12 9 10 13 15 17 20 18 19 21 24 23 24 21 20 19 18 19 19 20 22 23 25 27 30 32 34 35
54 50 40 40 37 31 26 20 24 18 21 24 11 15 14 13 14 16 16 15 20 21 22 21 22 24 25 24 24 22 21 24 21 19 20 20 20 23 23 26 29 32 33
53 56 50 41 41 35 30 30 23 27 26 15 18 20 13 16 16 18 18 19 23 24 26 28 24 23 25 24 22 23 20 22 22 17 16 17 12 26 17 25 29 32 30
57 59 49 49 38 36 35 30 29 26 26 20 26 23 18 18 19 19 18 19 24 26 28 27 21 28 26 35 27 25 19 28 27 27 29 34 27 28 35 28 34 36 29
61 59 51 49 34 39 35 34 28 31 22 18 26 22 20 22 23 22 19 21 26 28 31 28 31 22 40 24 23 22 21 36 31 30 34 33 38 31 32 27 39 34 41
54 64 65 48 40 27 31 38 34 28 20 27 26 24 22 18 24 25 26 26 27 32 34 33 33 28 27 37 22 34 31 37 33 44 42 41 31 29 36 38 42 45 49
80 53 58 59 43 42 39 37 39 32 24 28 27 26 26 28 28 27 28 30 29 33 39 38 37 39 29 38 24 42 23 27 46 52 36 45 47 34 31 35 50 49 50
42 41 49 56 48 41 39 38 41 37 30 31 27 31 31 32 32 31 33 33 33 37 45 42 39 37 32 26 26 22 40 26 19 24 25 30 36 39 43 47 45 55 57
73 52 44 70 41 53 42 36 40 43 39 35 34 34 36 34 35 36 32 33 38 43 47 34 37 51 31 36 41 37 36 32 21 51 46 35 36 45 50 49 43 54 58
84 66 52 50 49 47 43 40 47 47 42 37 37 36 40 40 30 39 42 34 46 52 53 48 50 38 40 48 41 45 40 53 38 56 30 25 37 40 55 51 53 46 62
84 86 66 72 61 53 51 50 48 44 44 42 41 40 42 46 44 38 39 42 54 57 59 54 55 42 44 36 42 49 44 55 54 32 59 44 59 60 58 64 68 62 61
77 75 83 79 66 61 54 51 50 51 44 45 43 47 48 45 51 41 45 49 52 40 57 45 51 48 58 56 48 48 51 49 59 47 68 67 56 64 54 67 72 70 68
86 85 75 54 55 57 62 56 57 56 37 26 49 46 44 51 57 53 51 22 47 60 49 55 33 54 47 60 64 54 51 62 61 48 62 59 65 66 63 65 74 78 82
78 69 81 69 59 58 58 60 63 63 40 61 62 26 49 60 59 58 50 51 63 59 54 54 56 55 55 41 68 65 69 70 61 67 63 70 78 70 76 84 84 79 78
94 86 57 76 74 73 68 65 70 66 12 59 44 41 64 65 63 56 60 51 53 61 53 54 53 63 55 60 67 72 74 77 78 67 65 72 78 74 84 88 85 93 78
97 93 90 92 89 74 54 72 74 69 64 69 59 52 75 76 78 70 54 51 53 57 49 62 54 62 63 64 66 72 76 76 82 80 72 79 79 55 86 91 89 86 88
99 92 103 49 49 86 56 70 58 56 82 77 71 52 44 69 67 76 62 65 59 72 69 69 76 69 67 68 69 72 75 56 62 81 79 90 86 31 89 85 88 48 89
59 108 105 84 93 61 65 88 76 84 49 90 52 58 25 67 80 87 97 54 85 57 82 76 84 71 76 73 83 77 74 81 81 79 86 85 85 80 89 85 83 90 91
100 55 87 90 105 82 81 91 82 100 95 73 98 95 75 93 82 84 84 79 94 57 90 79 90 75 93 70 87 86 96 77 75 83 77 85 87 86 92 86 90 91 93
Wind_Direction
220 243 242 220 220 235 240 240 240 252 269 281 294 309 318 335 337 335 345 337 13 14 6 8 9 8 9 15 14 17 9 3 4 1 2 358 4 4 360 2 8 13 11
220 228 227 219 218 236 231 237 235 240 267 279 276 299 315 335 327 39 33 23 14 360 0 351 2 3 13 358 3 355 359 354 352 350 349 354 352 357 359 5 3 356 357
226 227 231 205 220 219 224 231 248 259 228 241 271 290 111 78 21 357 11 356 348 350 344 339 341 356 344 352 0 0 360 356 349 349 347 346 347 347 3 349 347 346 342
208 233 208 194 198 219 217 223 226 228 229 234 154 132 118 95 337 333 336 324 340 340 328 336 341 337 334 5 5 355 341 343 339 338 340 342 339 340 359 345 343 342 342
214 212 231 193 199 213 220 222 237 215 197 167 163 173 275 11 318 308 332 318 321 324 327 323 327 325 333 332 331 325 327 328 330 333 333 336 335 334 338 342 344 339 341
208 212 223 218 192 205 216 209 210 209 189 192 221 208 276 295 309 302 309 315 317 325 332 315 328 316 318 320 316 317 317 320 321 319 327 330 328 330 335 353 336 336 333
214 204 200 228 194 196 203 213 225 247 224 207 213 249 273 280 303 296 302 307 319 323 328 325 322 315 320 315 314 309 309 311 317 322 325 328 332 332 334 334 334 340 339
223 217 215 199 218 197 203 212 216 235 251 221 251 260 266 270 292 298 300 306 313 321 314 313 319 313 309 310 314 314 313 310 314 322 323 325 336 339 338 336 334 336 337
217 210 209 209 211 198 193 207 214 218 246 252 237 243 261 269 278 291 295 312 325 323 326 302 302 303 304 307 312 309 311 309 316 319 324 331 339 333 343 338 339 336 346
215 217 208 205 207 210 203 201 214 221 234 220 255 257 265 272 277 288 306 315 314 323 332 325 301 302 321 317 318 309 311 306 320 328 320 322 345 345 347 360 353 6 350
219 211 215 204 214 205 207 208 205 214 228 228 249 255 264 278 283 288 292 311 312 309 319 324 304 323 325 315 331 324 312 319 327 328 322 318 340 339 333 351 347 336 3
224 227 214 214 208 207 212 217 217 216 211 212 248 252 266 274 277 281 281 289 293 298 305 319 319 310 312 315 309 318 316 318 320 325 326 327 325 330 336 339 336 347 348
231 227 228 220 228 217 218 223 223 219 212 232 242 261 250 259 269 282 287 286 287 295 299 312 314 315 314 309 300 304 304 303 308 311 322 319 322 315 324 323 329 330 338
221 214 205 231 208 205 207 224 232 233 224 234 241 252 258 259 276 280 277 283 287 294 301 305 307 309 317 306 294 307 312 304 307 322 298 312 312 315 309 313 324 324 329
214 211 216 215 207 212 214 221 236 238 233 239 243 250 256 269 272 271 276 281 286 292 295 302 300 304 308 289 291 293 296 297 298 313 315 313 312 315 326 313 321 323 324
231 223 217 221 218 224 219 217 235 240 241 245 254 256 256 260 264 270 280 284 290 291 294 308 298 301 284 284 303 293 298 307 293 314 320 316 306 328 316 325 305 321 322
232 226 211 215 217 222 221 226 235 237 243 240 253 254 257 264 273 273 277 284 290 290 291 291 293 288 282 295 294 302 293 309 291 304 321 309 303 325 308 300 326 300 322
232 231 229 233 227 230 225 230 235 245 247 256 254 257 266 271 269 274 278 281 282 287 287 285 291 286 275 284 285 303 288 309 296 278 311 306 318 287 319 317 307 314 320
231 234 236 234 235 230 225 232 238 241 245 247 247 267 258 263 262 276 272 282 281 278 275 278 279 281 296 296 286 299 296 294 301 277 282 298 289 314 281 315 308 296 303
226 227 229 227 230 235 237 232 240 244 250 264 244 256 269 274 269 271 278 284 269 272 285 285 297 296 276 301 303 302 295 305 297 256 269 291 267 312 282 313 308 297 290
233 233 232 231 226 231 236 240 238 246 254 243 258 271 276 268 271 271 278 259 263 266 260 290 289 287 287 307 305 304 305 306 284 302 258 290 302 278 306 297 302 306 304
230 233 224 236 232 232 235 237 243 245 231 251 263 260 263 269 262 267 267 270 272 251 283 270 278 293 263 299 302 304 298 308 308 287 280 299 287 274 285 299 299 289 302
227 231 232 235 236 232 233 236 238 245 248 245 248 272 258 260 256 255 277 290 273 271 287 269 292 285 295 296 291 297 301 301 301 303 297 303 300 306 294 279 291 304 293
227 230 231 227 236 235 238 233 246 252 244 249 252 274 281 276 281 273 270 277 269 282 280 293 260 294 289 292 291 291 291 308 310 298 299 297 297 307 303 291 289 313 300
228 224 229 232 234 238 239 235 239 239 266 246 275 276 258 278 274 261 263 282 274 283 282 283 275 285 288 288 278 288 288 285 292 294 287 294 293 276 295 296 296 292 293
225 235 229 231 233 237 234 232 238 241 241 260 246 249 268 249 259 281 282 281 273 277 281 287 279 287 278 275 282 289 283 287 288 289 295 291 292 291 288 293 291 294 289